| time (UTC) | temp C | wind direction | speed KPH | gust KPH | rain 1hr cm | rain 24hr cm | rain mn cm | humidity % | barometer mb |
| 20260505014020 | 28 | 319 | 3.2 | 67.6 | 0.00 | 0.00 | 0.00 | 100 | 1012.1 |
| 20260505013015 | 28 | 299 | 4.8 | 67.6 | 0.00 | 0.00 | 0.00 | 100 | 1012.1 |
| 20260505012017 | 28 | 291 | 4.8 | 67.6 | 0.00 | 0.00 | 0.00 | 100 | 1012.1 |
| 20260505011017 | 28 | 282 | 4.8 | 69.2 | 0.00 | 0.00 | 0.00 | 100 | 1011.7 |
| 20260505010039 | 28 | 286 | 4.8 | 67.6 | 0.00 | 0.00 | 0.00 | 100 | 1011.4 |
| 20260505005039 | 28 | 265 | 4.8 | 70.8 | 0.00 | 0.00 | 0.00 | 100 | 1011.2 |
| 20260505004020 | 28 | 271 | 3.2 | 57.9 | 0.00 | 0.00 | 0.00 | 100 | 1011.0 |
| 20260505003021 | 27 | 275 | 4.8 | 67.6 | 0.00 | 0.00 | 0.00 | 100 | 1011.0 |
| 20260505002017 | 27 | 269 | 4.8 | 67.6 | 0.00 | 0.00 | 0.00 | 100 | 1010.7 |
| 20260505001017 | 27 | 272 | 4.8 | 74.0 | 0.00 | 0.00 | 0.00 | 100 | 1010.6 |
| 20260505000039 | 27 | 266 | 4.8 | 75.6 | 0.00 | 0.00 | 0.00 | 100 | 1010.5 |
| 20260504235018 | 27 | 258 | 3.2 | 25.7 | 0.00 | 0.00 | 0.00 | 100 | 1010.4 |
| 20260504234019 | 27 | 267 | 3.2 | 62.8 | 0.00 | 0.00 | 0.00 | 100 | 1010.4 |
| 20260504233020 | 27 | 262 | 4.8 | 69.2 | 0.00 | 0.00 | 0.00 | 100 | 1010.4 |
| 20260504232015 | 27 | 266 | 3.2 | 66.0 | 0.00 | 0.00 | 0.00 | 100 | 1010.4 |
| 20260504231037 | 27 | 264 | 4.8 | 72.4 | 0.00 | 0.00 | 0.00 | 100 | 1010.3 |
| 20260504230017 | 27 | 268 | 3.2 | 56.3 | 0.00 | 0.00 | 0.00 | 100 | 1010.2 |
| 20260504225018 | 27 | 274 | 3.2 | 66.0 | 0.00 | 0.00 | 0.00 | 100 | 1010.1 |
| 20260504224019 | 27 | 304 | 4.8 | 69.2 | 0.00 | 0.00 | 0.00 | 100 | 1009.9 |
| 20260504223021 | 27 | 329 | 4.8 | 72.4 | 0.00 | 0.00 | 0.00 | 100 | 1009.8 |
| 20260504222016 | 27 | 344 | 3.2 | 64.4 | 0.00 | 0.00 | 0.00 | 100 | 1009.7 |
| 20260504221039 | 27 | 317 | 3.2 | 27.4 | 0.00 | 0.00 | 0.00 | 100 | 1009.6 |
| 20260504215038 | 27 | 333 | 4.8 | 72.4 | 0.00 | 0.00 | 0.00 | 100 | 1009.4 |
| 20260504214018 | 27 | 329 | 4.8 | 75.6 | 0.00 | 0.00 | 0.00 | 100 | 1009.5 |
| 20260504213020 | 27 | 308 | 4.8 | 69.2 | 0.00 | 0.00 | 0.00 | 100 | 1009.6 |
| 20260504212040 | 27 | 273 | 4.8 | 69.2 | 0.00 | 0.00 | 0.00 | 100 | 1009.5 |
| 20260504211037 | 27 | 277 | 4.8 | 70.8 | 0.00 | 0.00 | 0.00 | 100 | 1009.4 |
| 20260504210017 | 27 | 295 | 4.8 | 70.8 | 0.00 | 0.00 | 0.00 | 100 | 1009.5 |
| 20260504205018 | 27 | 273 | 3.2 | 66.0 | 0.00 | 0.00 | 0.00 | 100 | 1009.6 |
| 20260504204018 | 27 | 262 | 3.2 | 61.2 | 0.00 | 0.00 | 0.00 | 100 | 1009.7 |
| 20260504203020 | 27 | 267 | 4.8 | 75.6 | 0.00 | 0.00 | 0.00 | 100 | 1009.7 |
| 20260504202021 | 27 | 258 | 4.8 | 67.6 | 0.00 | 0.00 | 0.00 | 100 | 1009.7 |
| 20260504201016 | 27 | 248 | 4.8 | 72.4 | 0.00 | 0.00 | 0.00 | 100 | 1009.8 |
| 20260504200017 | 28 | 253 | 3.2 | 54.7 | 0.00 | 0.00 | 0.00 | 100 | 1009.9 |
| 20260504195018 | 28 | 254 | 3.2 | 67.6 | 0.00 | 0.00 | 0.00 | 100 | 1009.9 |
| 20260504194018 | 28 | 292 | 4.8 | 69.2 | 0.00 | 0.00 | 0.00 | 100 | 1010.0 |
| 20260504193019 | 28 | 345 | 3.2 | 66.0 | 0.00 | 0.00 | 0.00 | 100 | 1010.2 |
| 20260504192020 | 28 | 349 | 3.2 | 67.6 | 0.00 | 0.00 | 0.00 | 100 | 1010.3 |
| 20260504191037 | 28 | 354 | 3.2 | 66.0 | 0.00 | 0.00 | 0.00 | 100 | 1010.3 |
| 20260504190017 | 28 | 348 | 4.8 | 67.6 | 0.00 | 0.00 | 0.00 | 100 | 1010.3 |
| 20260504185017 | 28 | 353 | 4.8 | 70.8 | 0.00 | 0.00 | 0.00 | 100 | 1010.4 |
| 20260504184019 | 28 | 346 | 4.8 | 69.2 | 0.00 | 0.00 | 0.00 | 100 | 1010.6 |
| 20260504183040 | 28 | 327 | 3.2 | 66.0 | 0.00 | 0.00 | 0.00 | 100 | 1010.8 |
| 20260504182020 | 28 | 342 | 4.8 | 70.8 | 0.00 | 0.00 | 0.00 | 100 | 1010.8 |
| 20260504181016 | 28 | 343 | 4.8 | 69.2 | 0.00 | 0.00 | 0.00 | 100 | 1010.9 |
| 20260504180017 | 28 | 342 | 3.2 | 64.4 | 0.00 | 0.00 | 0.00 | 100 | 1011.0 |
| 20260504175018 | 28 | 344 | 3.2 | 64.4 | 0.00 | 0.00 | 0.00 | 100 | 1011.2 |
| 20260504174019 | 28 | 346 | 4.8 | 67.6 | 0.00 | 0.00 | 0.00 | 100 | 1011.5 |
| 20260504173019 | 28 | 343 | 3.2 | 61.2 | 0.00 | 0.00 | 0.00 | 100 | 1011.6 |
| 20260504172101 | 28 | 340 | 3.2 | 57.9 | 0.00 | 0.00 | 0.00 | 100 | 1011.7 |
| 20260504171016 | 28 | 328 | 3.2 | 29.0 | 0.00 | 0.00 | 0.00 | 100 | 1011.8 |
| 20260504151022 | 29 | 252 | 4.8 | 69.2 | 0.00 | 0.00 | 0.00 | 100 | 1011.3 |
| 20260504141020 | 30 | 329 | 4.8 | 69.2 | 0.00 | 0.00 | 0.00 | 100 | 1010.5 |
| 20260504081040 | 33 | 318 | 3.2 | 64.4 | 0.00 | 0.00 | 0.00 | 100 | 1008.6 |
| 20260504050016 | 34 | 306 | 4.8 | 74.0 | 0.00 | 0.00 | 0.00 | 99 | 1011.6 |
| 20260504045017 | 34 | 327 | 3.2 | 54.7 | 0.00 | 0.00 | 0.00 | 100 | 1011.7 |
| 20260504044037 | 33 | 318 | 3.2 | 66.0 | 0.00 | 0.00 | 0.00 | 100 | 1011.8 |
| 20260504043018 | 33 | 307 | 3.2 | 43.5 | 0.00 | 0.00 | 0.00 | 100 | 1011.9 |
| 20260504042020 | 33 | 308 | 3.2 | 38.6 | 0.00 | 0.00 | 0.00 | 100 | 1012.1 |
| 20260504041020 | 33 | 312 | 4.8 | 70.8 | 0.00 | 0.00 | 0.00 | 100 | 1012.1 |
| 20260504040016 | 32 | 324 | 4.8 | 70.8 | 0.00 | 0.00 | 0.00 | 100 | 1012.3 |
| 20260504035016 | 32 | 318 | 4.8 | 70.8 | 0.00 | 0.00 | 0.00 | 100 | 1012.4 |
| 20260504034017 | 32 | 309 | 4.8 | 69.2 | 0.00 | 0.00 | 0.00 | 100 | 1012.5 |
| 20260504033039 | 32 | 308 | 4.8 | 77.2 | 0.00 | 0.00 | 0.00 | 100 | 1012.6 |
| 20260504032019 | 32 | 313 | 3.2 | 66.0 | 0.00 | 0.00 | 0.00 | 100 | 1012.6 |
| 20260504031020 | 32 | 328 | 4.8 | 72.4 | 0.00 | 0.00 | 0.00 | 100 | 1012.7 |
| 20260504030016 | 32 | 309 | 4.8 | 70.8 | 0.00 | 0.00 | 0.00 | 100 | 1012.7 |
| 20260504025016 | 32 | 313 | 4.8 | 69.2 | 0.00 | 0.00 | 0.00 | 100 | 1012.6 |
| 20260504024018 | 31 | 312 | 4.8 | 67.6 | 0.00 | 0.00 | 0.00 | 100 | 1012.6 |
| 20260504023019 | 31 | 325 | 4.8 | 67.6 | 0.00 | 0.00 | 0.00 | 100 | 1012.5 |
| 20260504022019 | 31 | 311 | 3.2 | 61.2 | 0.00 | 0.00 | 0.00 | 100 | 1012.4 |
| 20260504021019 | 31 | 314 | 4.8 | 70.8 | 0.00 | 0.00 | 0.00 | 100 | 1012.4 |
| 20260504020016 | 30 | 333 | 4.8 | 69.2 | 0.00 | 0.00 | 0.00 | 100 | 1012.3 |
| 20260504015016 | 30 | 321 | 4.8 | 69.2 | 0.00 | 0.00 | 0.00 | 100 | 1012.2 |